This demonstration page uses our WeatherBlox Daily Observations layout. Learn more.

Left ArrowRight Arrow

40.92945, -100.16068

Hourly Observations for June 30, 2020

Temp ( °F °C ) Dew Point ( °F °C ) Humidity (%) Winds ( mph kmh ) Pressure ( in mb ) Visibility ( mi km ) Precip ( " mm )
12:15 am 00:15 Clear 80 26.5 72 22.2 77 77 SSE 15 24 29.48 998 10 16.0934 0 0
12:35 am 00:35 Clear 80 26.5 72 22.1 77 77 SE 14 22 29.48 998 10 16.0934 0 0
12:55 am 00:55 Clear 79 26.2 72 22 78 78 SSE 13 20 29.48 998 10 16.0934 0 0
1:15 am 01:15 Clear 79 25.9 72 22 79 79 SE 16 26 29.48 998 10 16.0934 0 0
1:35 am 01:35 Clear 78 25.8 71 21.8 79 79 SE 15 24 29.49 998 10 16.0934 0 0
1:55 am 01:55 Clear 78 25.5 71 21.8 80 80 SSE 14 22 29.49 999 10 16.0934 0 0
2:15 am 02:15 Clear 78 25.4 71 21.8 81 81 SSE 15 24 29.49 999 10 16.0934 0 0
2:35 am 02:35 Clear 77 25.1 71 21.8 82 82 SSE 13 20 29.49 999 10 16.0934 0 0
2:55 am 02:55 Clear 77 25 71 21.8 82 82 SSE 14 22 29.48 998 10 16.0934 0 0
3:15 am 03:15 Clear 76 24.7 71 21.8 84 84 SSE 16 26 29.48 998 10 16.0934 0 0
3:35 am 03:35 Clear 76 24.7 72 22 85 85 SSE 15 24 29.48 998 10 16.0934 0 0
3:55 am 03:55 Clear 76 24.3 72 22 87 87 SSE 15 24 29.49 999 10 16.0934 0 0
4:15 am 04:15 Clear 76 24.2 72 22 88 88 SSE 15 24 29.49 999 10 16.0934 0 0
4:35 am 04:35 Clear 75 24 72 22 89 89 SSE 14 22 29.49 999 10 16.0934 0 0
4:55 am 04:55 Clear 75 23.8 72 22 90 90 SSE 14 22 29.49 999 10 16.0934 0 0
5:15 am 05:15 Clear 74 23.6 72 22 91 91 SSE 12 19 29.49 999 10 16.0934 0 0
5:35 am 05:35 Clear 74 23.5 71 21.9 91 91 SE 12 19 29.49 999 10 16.0934 0 0
5:55 am 05:55 Clear 74 23.2 71 21.8 92 92 SE 9 15 29.5 999 7 11.26538 0 0
6:15 am 06:15 Partly Cloudy 74 23.1 71 21.7 92 92 SE 9 15 29.51 999 7 11.26538 0 0
6:35 am 06:35 Partly Cloudy 73 22.7 71 21.6 94 94 SE 9 15 29.51 999 7 11.26538 0 0
6:55 am 06:55 Partly Cloudy 73 23 71 21.8 93 93 SE 10 17 29.51 999 7 11.26538 0 0
7:15 am 07:15 Mostly Cloudy with Mist and Fog 73 23 71 21.7 92 92 SE 10 17 29.5 999 5 8.0467 0 0
7:35 am 07:35 Cloudy 74 23.5 71 21.8 90 90 SE 14 22 29.5 999 7 11.26538 0 0
7:55 am 07:55 Cloudy 75 23.7 72 22 90 90 SSE 14 22 29.5 999 7 11.26538 0 0
8:15 am 08:15 Cloudy 75 24.1 72 22 88 88 SSE 12 19 29.51 999 10 16.0934 0 0
8:35 am 08:35 Cloudy 76 24.7 71 21.9 84 84 SSE 14 22 29.5 999 10 16.0934 0 0
8:55 am 08:55 Cloudy 77 25.1 71 21.8 82 82 SSE 10 17 29.5 999 10 16.0934 0 0
9:15 am 09:15 Cloudy 79 26.1 71 21.8 77 77 SSE 14 22 29.5 999 10 16.0934 0 0
9:35 am 09:35 Cloudy 79 26.2 71 21.5 75 75 S 8 13 29.5 999 10 16.0934 0 0
9:55 am 09:55 Cloudy 81 27 71 21.4 71 71 S 12 19 29.5 999 10 16.0934 0 0
10:15 am 10:15 Mostly Cloudy 81 27.2 69 20.8 68 68 S 9 15 29.49 999 10 16.0934 0 0
10:35 am 10:35 Mostly Cloudy 80 26.9 70 21 70 70 SSE 7 11 29.5 999 10 16.0934 0 0
10:55 am 10:55 Mostly Cloudy 84 28.7 70 21 63 63 S 6 9 29.48 998 10 16.0934 0 0
11:15 am 11:15 Mostly Cloudy 86 29.8 69 20.7 58 58 S 7 11 29.48 998 10 16.0934 0 0
11:35 am 11:35 Mostly Cloudy 85 29.2 69 20.4 59 59 S 7 11 29.5 999 10 16.0934 0 0
11:55 am 11:55 Cloudy 85 29.2 69 20.4 59 59 S 6 9 29.5 999 10 16.0934 0 0
12:15 pm 12:15 Mostly Cloudy 85 29.2 69 20.4 59 59 SW 5 7 29.51 999 10 16.0934 0 0
12:35 pm 12:35 Partly Cloudy 88 30.9 68 20.2 53 53 SE 5 7 29.5 999 10 16.0934 0 0
12:55 pm 12:55 Sunny 86 29.9 68 20.2 56 56 SSE 5 7 29.51 999 10 16.0934 0 0
1:15 pm 13:15 Mostly Cloudy 88 31.3 68 19.8 50 50 S 3 6 29.5 999 10 16.0934 0 0
1:35 pm 13:35 Mostly Cloudy 90 32.4 68 20.2 49 49 SE 8 13 29.48 998 10 16.0934 0 0
1:55 pm 13:55 Mostly Cloudy 87 30.7 68 20.1 53 53 ESE 6 9 29.51 999 10 16.0934 0 0
2:15 pm 14:15 Mostly Cloudy 87 30.8 69 20.3 54 54 ESE 7 11 29.49 999 10 16.0934 0 0
2:35 pm 14:35 Mostly Cloudy 91 32.8 69 20.5 48 48 ESE 9 15 29.49 999 10 16.0934 0 0
2:55 pm 14:55 Mostly Cloudy 93 33.7 69 20.4 46 46 SE 12 19 29.48 998 10 16.0934 0 0
3:15 pm 15:15 Mostly Cloudy 90 32.3 69 20.4 49 49 SSE 6 9 29.49 999 10 16.0934 0 0
3:35 pm 15:35 Mostly Cloudy 90 32 69 20.5 51 51 SSE 5 7 29.51 999 10 16.0934 0 0
3:55 pm 15:55 Mostly Cloudy 90 32.4 69 20.3 49 49 S 7 11 29.5 999 10 16.0934 0 0
4:15 pm 16:15 Mostly Cloudy 92 33.3 68 19.9 45 45 SSE 5 7 29.5 999 10 16.0934 0 0
4:35 pm 16:35 Partly Cloudy 92 33.5 68 20 45 45 SSW 5 7 29.49 999 10 16.0934 0 0
4:55 pm 16:55 Partly Cloudy 92 33.3 68 19.8 45 45 W 5 7 29.5 999 10 16.0934 0 0
5:15 pm 17:15 Partly Cloudy 93 33.8 69 20.3 45 45 W 6 9 29.5 999 10 16.0934 0 0
5:35 pm 17:35 Cloudy 88 31.3 70 21.3 55 55 NW 13 20 29.52 1000 10 16.0934 0 0
5:55 pm 17:55 Cloudy 87 30.6 69 20.6 55 55 NNW 16 26 29.54 1000 10 16.0934 0 0
6:15 pm 18:15 Partly Cloudy 87 30.3 69 20.6 56 56 NNW 15 24 29.55 1001 10 16.0934 0 0
6:35 pm 18:35 Mostly Cloudy 83 28.3 65 18.6 56 56 NNW 17 28 29.58 1002 10 16.0934 0 0
6:55 pm 18:55 Cloudy 81 27.2 64 17.9 57 57 NNW 18 30 29.59 1002 10 16.0934 0 0
7:15 pm 19:15 Cloudy with Rain 78 25.4 66 18.8 67 67 W 10 17 29.65 1004 10 16.0934 0 0
7:35 pm 19:35 Mostly Cloudy 73 22.6 67 19.5 83 83 N 10 17 29.67 1005 10 16.0934 0 0
7:55 pm 19:55 Partly Cloudy 74 23.1 66 19.1 78 78 N 8 13 29.68 1005 10 16.0934 0 0
8:15 pm 20:15 Partly Cloudy 74 23.2 64 17.9 72 72 NNW 14 22 29.68 1005 10 16.0934 0 0
8:35 pm 20:35 Partly Cloudy 73 22.6 63 17.4 73 73 N 7 11 29.69 1005 10 16.0934 0 0
8:55 pm 20:55 Mostly Cloudy 71 21.7 64 18 80 80 NNE 5 7 29.7 1006 10 16.0934 0 0
9:15 pm 21:15 Mostly Cloudy 71 21.7 64 17.6 78 78 NNW 7 11 29.7 1006 10 16.0934 0 0
9:35 pm 21:35 Partly Cloudy 70 21 63 17.3 80 80 NW 7 11 29.69 1006 10 16.0934 0 0
9:55 pm 21:55 Clear 69 20.8 63 17 79 79 NNW 6 9 29.71 1006 10 16.0934 0 0
10:15 pm 22:15 Clear 67 19.7 63 17 85 85 N 6 9 29.73 1007 10 16.0934 0 0
10:35 pm 22:35 Partly Cloudy 67 19.5 63 17 86 86 N 3 6 29.73 1007 10 16.0934 0 0
10:55 pm 22:55 Clear 68 19.8 62 16.6 82 82 NW 3 6 29.73 1007 10 16.0934 0 0
11:15 pm 23:15 Clear 66 18.7 62 16.5 87 87 N 3 6 29.74 1007 10 16.0934 0 0
11:35 pm 23:35 Clear 64 18 62 16.5 91 91 N 3 6 29.76 1008 10 16.0934 0 0
11:55 pm 23:55 Clear 65 18.2 61 16 87 87 NNE 6 9 29.76 1008 10 16.0934 0 0

Powered by AerisWeather